GFSGBSN_925_thetae_000.txt.gz
Theta_e
309 306 305 305 303 303 303 303 303 303 302 303 303 305 305 304 306 308 308 309 318 319 317 317 315 313 318 325 323 323 321 317 321 329 326 334 335 331 331 331 333 342 349 351 350 347 346
310 308 306 304 304 302 302 302 302 302 302 302 303 304 305 304 306 307 307 313 321 318 316 311 310 311 325 323 324 332 332 321 329 327 326 335 331 330 330 331 334 345 349 349 346 342 342
310 309 308 307 303 302 302 302 302 302 302 303 303 303 305 305 305 306 308 318 318 314 311 310 309 321 325 323 331 329 333 322 324 325 329 332 330 329 330 336 341 348 351 351 346 348 343
310 310 310 307 305 302 302 302 302 302 303 303 303 303 304 305 304 305 308 319 315 313 312 312 318 327 326 323 331 326 325 325 325 329 331 331 328 328 330 336 344 344 344 347 348 348 346
310 310 309 309 304 302 302 302 302 302 303 303 303 304 304 305 305 305 310 318 314 316 314 316 330 331 330 328 331 326 324 325 326 330 330 326 327 329 333 334 337 341 340 340 347 349 349
309 310 309 308 306 302 302 302 302 302 303 303 303 304 304 305 305 306 317 318 318 323 324 325 329 333 329 328 327 325 325 325 329 330 329 329 329 329 330 333 334 335 337 339 341 346 349
309 308 308 308 307 303 302 302 301 302 302 303 303 304 304 305 305 306 320 324 332 332 330 332 332 329 327 326 327 326 326 326 328 328 328 330 331 330 329 330 330 330 332 337 338 342 345
308 308 308 307 306 304 303 303 302 302 302 302 303 303 304 305 306 307 319 330 331 329 331 328 329 329 329 326 327 327 328 327 327 326 327 327 329 329 329 330 329 329 330 332 340 344 346
307 307 307 307 305 304 303 303 303 303 302 303 303 303 304 305 307 317 320 319 326 326 330 330 329 329 328 327 326 326 328 328 327 326 327 326 327 329 329 329 330 331 331 332 337 348 347
306 306 306 306 305 304 304 304 303 303 303 303 303 304 304 305 314 315 318 327 322 327 331 329 326 328 328 326 325 325 327 327 326 326 327 329 328 328 329 330 331 332 333 333 335 350 344
306 306 306 306 305 304 304 305 303 303 303 303 303 304 304 305 311 315 322 319 324 326 331 326 328 327 327 326 326 327 327 327 326 328 329 330 328 329 330 330 331 334 338 339 341 348 347
306 306 306 306 305 304 304 304 303 303 304 303 304 304 304 313 313 312 315 321 328 330 327 327 325 327 327 327 327 328 328 327 328 328 329 330 330 330 330 330 330 338 343 343 343 339 342
305 305 305 306 305 304 304 304 303 303 304 304 304 305 306 309 314 316 318 331 336 330 327 326 324 326 327 326 326 327 329 328 328 329 331 330 329 330 331 332 334 335 335 335 336 336 335
304 305 305 305 305 304 304 304 303 303 304 304 304 305 310 308 314 312 315 330 336 328 327 329 325 325 326 326 326 328 328 329 329 330 330 331 332 330 331 331 332 332 331 331 333 332 330
304 305 305 305 305 305 304 305 303 304 304 303 305 312 313 316 313 315 323 331 332 328 332 331 326 325 326 326 326 327 329 329 329 329 330 330 330 330 330 331 332 332 332 331 332 330 330
304 304 305 305 304 306 305 305 304 304 304 304 310 312 314 319 320 316 326 328 330 330 331 329 330 326 326 326 326 327 329 329 329 328 329 330 331 330 330 331 331 333 332 332 331 334 335
304 304 304 305 305 306 304 305 304 305 303 307 311 313 320 320 320 318 327 329 329 327 327 330 331 330 327 326 327 327 329 328 328 328 329 329 330 333 332 332 331 332 333 334 333 334 334
304 304 304 305 305 305 304 305 304 305 303 311 315 314 320 319 323 323 327 329 324 327 326 327 329 330 329 327 327 328 328 329 327 328 328 329 330 332 331 332 333 332 332 334 336 341 335
304 305 305 305 305 304 304 305 304 305 304 309 318 316 321 322 326 330 330 329 327 326 326 326 329 329 329 330 330 328 328 329 328 328 329 330 329 331 333 334 333 334 334 334 334 335 336
303 304 304 305 305 303 304 305 305 305 304 309 321 323 326 326 327 329 329 329 328 325 326 325 327 329 331 331 333 332 331 332 332 331 333 332 330 331 330 332 331 334 334 334 334 336 336
303 304 304 304 305 304 304 305 304 304 305 310 321 325 323 327 328 327 326 328 328 328 327 327 329 329 332 333 332 332 332 334 333 337 333 332 335 333 331 330 331 332 334 334 335 334 336
303 303 304 303 304 305 304 305 304 303 308 312 320 321 321 325 324 324 321 328 326 327 328 327 330 331 332 333 335 333 332 335 335 335 336 336 338 337 333 332 331 331 332 334 334 334 336
303 303 304 304 304 304 305 305 304 304 308 312 312 313 318 316 325 325 327 327 326 326 327 327 330 333 331 334 331 332 332 334 333 338 337 338 339 341 336 335 334 336 335 335 335 336 334
302 303 303 303 304 304 306 305 304 304 304 308 309 312 317 316 322 322 322 321 324 323 328 326 328 333 330 328 330 329 330 331 332 334 335 341 341 338 337 339 340 335 335 334 335 334 333
300 302 302 303 303 304 305 306 306 303 303 308 308 312 316 313 313 315 316 318 319 321 324 325 327 328 326 330 334 335 334 335 334 334 335 338 340 337 339 339 335 336 335 334 334 335 334
300 300 302 302 303 303 305 306 305 303 303 308 307 308 313 316 315 315 314 316 317 320 321 323 325 322 329 331 333 338 333 332 334 336 334 336 340 339 337 336 337 334 334 334 334 336 331
300 300 300 301 302 302 304 305 306 305 303 306 307 305 311 313 314 316 316 316 316 317 318 321 319 328 329 331 332 333 332 333 335 335 337 337 339 336 335 337 333 336 333 333 335 334 332
300 300 300 300 301 302 302 304 305 304 303 305 307 305 306 310 310 310 311 314 315 314 317 319 321 327 328 331 330 331 333 334 334 335 337 338 338 335 335 337 338 333 332 334 340 334 333
300 300 299 301 300 302 301 304 305 303 303 304 307 306 305 308 310 309 308 308 311 312 314 315 319 326 322 327 329 332 331 332 333 334 332 335 337 338 336 338 337 333 335 333 334 336 337

GFSGBSN_925_thetae_003.txt.gz
Theta_e
309 307 306 306 304 302 302 302 303 303 303 303 303 304 305 305 306 307 307 307 314 319 318 317 316 314 319 328 327 326 322 319 328 332 329 329 335 337 334 334 333 341 341 341 341 342 341
312 310 306 304 304 302 302 302 302 302 303 303 303 304 304 305 305 306 307 307 317 316 312 310 310 312 326 328 326 329 329 321 324 328 327 330 338 335 334 333 336 340 342 341 341 340 341
312 311 310 308 303 302 302 302 302 302 303 303 303 304 304 305 305 305 307 307 318 315 313 311 310 321 326 326 328 330 330 321 324 326 327 333 334 332 334 333 337 339 341 341 341 342 340
311 311 310 309 307 302 302 302 302 302 302 303 303 303 304 305 305 305 306 308 318 314 313 312 315 326 333 323 329 329 330 323 326 326 327 334 331 331 333 335 340 339 340 343 342 341 343
310 310 309 309 308 304 302 302 301 301 302 302 303 303 303 304 305 305 307 314 318 316 316 315 330 335 336 329 332 327 326 324 324 327 332 331 330 332 333 335 341 339 341 342 343 341 347
310 309 310 309 308 305 303 302 302 302 302 302 302 303 303 304 306 305 307 320 324 320 326 326 328 334 333 329 329 326 325 325 326 330 333 330 330 332 334 334 338 339 340 340 342 341 340
309 308 309 309 306 305 304 304 303 302 302 302 303 303 303 304 306 305 308 327 335 338 333 333 334 329 328 328 327 326 326 326 328 331 332 331 331 332 332 333 334 336 335 338 337 340 341
308 308 307 307 306 305 304 304 304 303 302 302 303 303 304 304 305 307 313 330 331 331 332 329 329 331 329 328 327 327 326 326 328 330 330 332 332 331 331 331 332 331 332 336 337 339 339
307 306 306 306 306 306 304 304 304 303 303 302 303 303 304 304 306 313 323 326 325 328 332 329 328 330 331 328 327 326 326 327 328 328 328 330 331 332 331 331 331 331 331 332 335 337 337
306 306 306 306 306 306 304 304 304 304 303 303 303 304 304 305 312 319 319 327 328 328 334 329 329 329 329 328 328 327 326 327 327 328 328 328 329 329 329 330 330 331 331 331 332 337 340
306 305 305 306 306 306 304 304 304 304 303 303 303 304 304 306 311 315 321 321 324 329 334 328 329 328 330 326 328 327 326 328 328 327 328 328 329 330 330 330 331 334 332 332 332 334 337
305 305 305 306 306 306 304 304 304 304 303 304 303 303 304 312 316 316 318 318 327 333 330 328 329 329 329 327 327 327 326 328 328 328 328 330 331 331 331 331 331 335 335 335 335 335 339
304 305 305 305 306 306 305 306 305 305 304 304 303 303 306 310 314 318 321 325 337 334 328 328 328 328 328 326 328 326 326 328 329 330 330 331 331 331 331 331 332 333 334 337 337 339 340
304 305 305 305 305 305 306 306 305 305 304 304 303 304 309 311 313 315 316 325 335 332 329 328 327 328 327 327 328 327 327 329 330 331 331 333 331 331 331 331 332 332 334 335 338 337 336
304 304 304 304 305 305 306 305 305 304 304 304 304 313 316 317 317 315 322 326 332 332 329 328 327 327 327 327 328 329 328 329 330 331 332 333 332 331 331 332 332 333 332 333 332 334 335
304 304 304 304 305 305 305 304 304 304 305 304 310 314 316 319 320 316 324 326 330 330 332 332 332 327 327 328 327 329 330 330 330 331 332 333 334 332 331 331 332 334 332 332 332 334 337
304 304 304 305 305 305 304 304 305 304 304 307 315 318 320 320 322 321 325 328 329 330 330 331 332 331 327 328 328 328 331 331 331 330 330 331 332 332 332 331 332 332 334 335 335 337 338
303 303 303 305 305 305 303 304 304 304 304 311 316 318 323 323 323 325 324 326 325 329 329 330 331 332 330 328 329 328 329 331 331 331 330 330 331 332 332 332 331 332 333 333 336 338 336
303 303 304 304 304 305 304 304 304 304 304 309 320 320 321 323 323 326 325 325 328 330 329 330 330 332 332 329 329 328 329 330 330 329 330 330 330 332 332 333 331 331 332 333 334 335 342
304 304 304 303 303 304 304 304 304 303 305 308 320 323 319 326 324 329 329 327 330 329 329 328 329 332 332 332 330 329 328 329 329 329 335 331 330 330 331 332 334 333 331 332 333 337 337
302 303 304 305 304 304 305 304 304 303 306 309 323 325 328 327 324 328 331 330 329 330 328 328 329 330 333 334 332 331 330 331 331 336 330 330 333 332 331 330 332 332 332 331 334 335 336
302 303 303 304 304 304 305 305 305 303 309 314 318 322 324 327 330 330 325 331 330 329 330 329 329 330 332 337 339 333 334 334 334 334 333 333 334 333 333 332 330 331 332 332 333 333 333
301 302 303 303 304 305 305 306 305 303 308 313 313 315 319 323 325 327 327 329 330 329 329 329 331 333 332 336 335 335 335 337 337 337 336 337 335 336 336 333 332 333 332 332 333 334 334
301 301 302 303 303 304 305 306 306 303 304 310 311 313 320 321 322 326 327 326 328 328 331 329 328 332 334 332 333 333 333 333 333 335 337 340 341 338 338 336 337 334 333 333 333 334 335
301 301 301 302 303 303 304 305 306 305 302 309 310 311 318 321 317 320 321 323 324 325 326 328 328 331 328 333 334 333 333 333 332 332 333 334 341 339 339 337 337 336 336 334 335 336 335
300 300 300 301 302 302 303 305 306 306 303 308 311 308 313 318 318 316 317 319 323 324 326 325 327 324 330 334 332 334 334 333 333 332 332 334 337 339 338 339 339 337 336 335 335 337 335
302 301 301 300 302 302 303 304 306 306 304 306 310 308 310 316 316 314 319 319 319 321 324 325 324 326 329 331 331 331 331 331 332 334 338 337 336 335 333 336 336 334 336 336 340 341 336
300 300 301 301 300 301 303 303 305 305 304 306 310 308 308 312 312 312 313 316 319 316 321 321 322 325 328 330 331 330 329 329 331 333 337 340 337 334 334 335 338 335 335 336 343 337 336
300 299 300 300 300 301 302 303 304 305 304 304 310 309 308 311 312 310 309 309 310 315 317 318 324 330 328 331 331 332 333 332 335 336 335 338 341 342 342 342 342 337 339 336 335 336 335

GFSGBSN_925_thetae_006.txt.gz
Theta_e
312 309 308 307 304 302 302 302 302 302 303 303 303 304 304 304 305 306 306 306 307 312 316 312 311 315 319 327 327 327 322 323 322 323 327 331 329 338 339 335 333 339 340 339 342 342 342
312 311 310 309 307 303 302 302 302 302 303 303 303 304 304 304 305 305 306 306 307 315 315 313 310 311 323 328 326 327 324 323 324 325 328 329 331 337 336 334 334 339 340 339 340 339 342
312 312 310 310 309 305 303 302 301 301 302 302 303 303 304 304 305 305 306 306 307 318 315 312 309 317 328 325 327 328 326 323 324 326 329 328 332 337 334 333 339 339 339 340 338 342 342
311 311 311 310 309 305 303 303 302 301 302 302 302 303 303 303 304 305 306 307 307 320 316 313 311 324 330 328 326 329 327 324 323 326 327 329 335 334 334 335 337 339 340 340 342 344 341
310 310 310 309 308 306 304 304 304 303 302 302 302 302 303 303 304 305 306 308 310 321 317 315 323 328 335 325 326 330 328 324 323 326 327 330 335 332 333 333 340 339 341 343 344 343 342
309 309 308 308 308 306 305 304 304 304 303 302 302 303 303 303 304 305 306 309 322 323 329 325 326 333 335 334 326 329 328 324 327 327 328 334 334 332 332 335 341 339 342 344 345 343 345
308 308 307 307 307 307 306 304 304 304 304 302 302 302 303 303 304 305 306 316 333 338 334 334 331 329 331 332 329 327 327 325 326 326 331 334 333 331 332 334 337 339 339 343 342 345 348
306 306 307 306 307 307 306 304 304 304 304 303 302 302 303 304 305 306 306 320 328 328 331 330 332 332 331 328 328 326 326 326 325 327 330 332 331 331 332 334 334 335 335 337 340 340 342
306 306 306 305 306 306 306 305 304 304 304 303 303 303 303 303 305 310 318 325 325 325 331 330 329 329 331 330 329 326 327 326 326 328 331 332 331 332 332 332 332 334 332 333 339 339 338
305 305 305 305 306 306 306 305 306 305 305 304 302 303 303 303 312 314 318 323 328 327 331 329 329 330 329 329 329 327 327 327 327 329 330 330 332 332 332 331 331 332 331 332 333 337 338
305 305 305 305 306 306 306 306 306 306 305 304 302 303 304 303 309 314 318 319 322 327 332 329 328 329 329 330 328 327 327 327 328 329 329 329 330 331 332 332 331 331 332 331 332 332 333
305 305 305 305 305 305 306 306 306 305 305 304 302 303 304 309 313 316 318 320 322 333 331 329 329 328 329 329 328 328 327 327 328 328 329 329 329 329 329 330 330 331 335 333 332 332 336
305 305 305 305 304 305 305 306 305 304 304 304 303 302 305 307 312 315 315 321 329 334 329 328 328 328 329 329 327 328 327 326 327 329 328 328 329 330 330 330 332 332 335 338 337 337 338
304 304 304 304 305 305 305 305 304 304 304 303 303 303 305 308 308 311 316 322 332 333 331 329 329 329 329 329 327 328 327 326 328 328 328 328 329 331 331 331 332 332 334 336 343 339 338
304 304 304 305 305 305 305 304 303 305 303 303 304 311 313 319 317 315 319 326 329 330 332 329 330 328 328 328 326 327 327 326 328 329 331 330 332 332 331 332 333 333 335 334 335 335 334
304 304 304 303 305 305 305 304 304 304 303 304 309 313 315 316 320 318 319 323 326 326 329 331 332 329 328 328 326 328 327 327 328 329 331 332 335 331 331 332 332 333 333 333 334 340 340
303 303 303 303 304 304 305 305 304 304 303 307 314 322 320 317 322 320 319 323 325 325 328 332 333 333 328 328 327 328 328 328 328 330 332 332 334 333 332 331 331 332 333 333 333 334 337
303 303 303 305 303 304 304 305 304 304 304 310 314 318 320 322 325 321 320 323 323 325 329 331 331 332 333 332 328 328 330 330 329 330 331 332 332 335 333 332 332 332 333 335 337 341 340
302 304 304 304 305 304 304 306 305 305 305 308 316 319 320 323 324 323 323 324 325 325 328 330 329 330 332 334 331 329 329 330 331 331 333 332 333 334 334 333 332 332 333 332 333 334 344
302 304 304 304 304 305 305 305 306 305 304 308 317 320 320 324 323 324 324 326 326 325 327 330 329 330 329 333 333 331 329 329 331 331 338 335 331 335 331 335 334 335 332 331 332 339 337
302 302 303 304 305 304 304 306 306 305 303 309 319 321 325 327 323 323 325 328 330 326 328 330 330 330 331 334 332 331 330 329 330 337 331 331 339 332 330 330 330 332 333 332 332 335 337
301 301 302 303 304 304 304 305 307 305 306 314 320 317 320 322 326 331 323 328 332 329 328 330 330 330 330 334 339 342 339 338 332 331 330 331 336 331 331 331 330 330 331 334 333 332 332
302 301 302 302 303 304 304 304 306 306 306 313 314 311 316 321 325 327 329 330 331 331 329 330 330 333 332 335 336 337 335 335 337 338 335 337 333 338 335 332 332 333 332 331 333 334 333
301 302 302 302 302 303 304 304 305 306 306 307 313 311 318 321 322 324 327 328 330 331 331 331 330 331 335 332 334 335 334 334 336 336 338 342 346 340 337 340 340 334 334 332 332 333 334
302 302 302 302 302 303 303 304 305 306 306 307 311 312 313 320 323 322 324 325 327 329 330 329 331 331 330 331 335 335 336 335 335 337 339 336 346 342 342 338 335 336 336 339 339 340 336
301 301 302 302 302 302 302 303 304 306 306 307 310 311 311 317 320 318 318 320 323 326 328 327 328 328 327 329 331 336 335 334 336 334 338 337 343 347 343 338 339 340 337 336 337 341 339
302 301 301 302 303 302 302 303 304 305 306 306 309 312 311 313 316 314 317 318 321 323 325 327 328 327 327 329 330 331 331 332 334 335 339 336 339 337 337 337 334 335 337 336 342 342 338
301 302 301 301 301 301 301 302 304 304 306 306 308 312 311 312 312 313 313 314 317 322 323 324 325 325 328 330 329 329 330 330 334 338 337 342 340 338 340 339 339 337 339 339 348 343 338
302 301 301 301 301 302 302 301 303 304 305 304 309 310 310 312 313 311 311 312 312 314 318 319 322 332 331 333 331 330 330 331 339 331 335 337 342 348 347 348 342 339 342 340 338 342 337

GFSGBSN_925_thetae_009.txt.gz
Theta_e
313 312 311 311 309 303 303 302 302 302 302 303 303 304 304 304 304 305 306 306 306 307 311 316 313 310 318 326 325 325 325 325 324 324 323 324 329 328 328 336 333 337 337 340 341 343 346
311 312 312 311 309 306 304 303 302 301 301 302 302 303 304 304 304 305 305 306 306 307 313 315 312 310 320 324 322 324 326 324 324 322 323 324 328 327 329 335 335 338 336 340 339 343 347
311 311 310 309 309 307 306 304 304 303 302 302 302 302 303 303 304 304 305 306 306 306 313 316 311 316 324 321 323 327 324 322 324 323 322 326 328 326 327 332 337 339 337 337 340 342 347
310 310 310 308 308 307 307 305 304 304 303 302 302 302 302 303 304 304 305 306 306 308 316 316 312 322 323 319 325 324 326 324 323 324 324 327 329 326 329 329 337 338 336 337 340 341 345
309 308 308 307 307 307 307 306 304 304 304 303 302 302 302 303 304 304 305 306 308 312 321 315 320 323 333 331 328 326 328 324 321 322 325 326 326 327 332 330 333 335 337 342 343 339 341
307 307 306 306 306 307 307 306 305 304 304 304 303 302 302 303 304 304 305 307 312 327 324 326 325 328 329 334 327 326 329 327 321 320 323 324 325 330 329 327 334 336 337 343 344 341 340
307 306 306 305 305 306 306 306 306 305 306 305 303 302 302 302 304 304 305 307 323 333 332 334 329 329 328 331 329 325 327 327 320 321 322 323 330 331 330 328 329 337 337 343 343 341 343
306 305 305 305 305 306 306 306 306 306 306 305 304 302 301 302 304 305 307 314 317 322 325 326 330 333 332 332 330 327 328 325 320 322 323 325 331 332 332 331 332 332 342 343 342 343 343
305 305 305 305 305 305 305 306 306 306 306 304 304 303 302 301 305 311 315 318 323 322 325 326 328 329 327 329 329 325 324 324 321 321 323 325 332 333 332 330 331 331 332 337 343 346 344
305 305 305 305 305 305 305 305 305 305 304 304 304 303 302 301 311 311 310 316 319 321 324 326 327 328 327 328 327 327 325 323 323 322 323 327 330 331 330 329 330 329 331 331 333 345 346
305 305 304 305 305 304 305 305 305 304 303 304 303 303 303 303 307 312 312 315 318 322 333 330 328 327 327 327 328 326 325 323 323 324 324 328 329 329 330 330 329 328 330 329 329 330 334
305 304 304 305 304 305 305 305 305 303 304 304 303 303 304 305 309 308 312 312 317 325 336 330 327 327 327 327 328 327 324 324 325 325 326 327 328 328 329 330 330 331 329 331 327 326 328
304 304 304 305 304 305 305 305 305 303 304 304 302 302 304 306 308 310 308 315 325 328 329 329 326 327 326 327 328 328 324 323 323 322 325 327 327 326 327 327 328 329 327 333 332 331 330
304 304 304 304 303 304 305 305 305 304 304 303 303 303 306 308 306 306 312 318 328 328 327 328 327 327 326 327 328 327 324 324 323 323 325 327 326 326 327 325 325 326 328 335 339 337 335
304 304 304 303 304 304 304 304 305 304 304 302 306 309 311 311 314 312 316 319 324 327 327 328 329 330 327 328 328 325 325 324 323 323 323 325 327 327 328 329 327 328 330 329 331 335 332
303 303 303 303 305 304 304 304 306 305 304 304 308 312 315 312 316 315 318 319 322 323 325 326 326 327 331 327 327 324 325 326 325 325 324 325 328 327 329 328 328 328 330 330 328 334 337
303 303 303 303 304 305 305 305 305 305 304 305 310 318 319 318 319 319 317 317 320 321 322 323 324 325 329 332 327 325 324 326 326 325 325 325 325 329 328 327 327 330 330 329 329 330 332
303 302 303 303 304 304 304 305 305 306 306 305 312 317 318 316 321 323 321 317 317 321 322 323 324 325 330 333 333 326 325 326 326 325 325 326 327 331 328 329 329 328 328 331 335 334 335
303 302 303 303 304 304 304 303 305 306 307 306 312 314 315 319 324 324 322 318 318 320 321 323 324 325 329 330 333 334 328 328 327 325 324 327 328 329 335 329 328 328 328 328 333 329 331
303 303 302 303 303 304 304 303 304 306 306 306 313 321 321 320 322 323 323 324 323 322 322 323 324 329 331 329 329 331 333 331 328 327 336 332 328 332 330 334 330 329 330 330 327 328 329
303 303 302 302 303 304 304 303 303 306 305 308 315 321 319 322 322 320 324 327 323 324 325 325 324 330 330 331 332 333 335 339 330 334 333 329 331 331 330 330 329 332 332 330 328 327 333
303 302 302 302 303 303 304 303 302 306 307 312 319 316 313 313 318 324 326 328 330 324 329 334 331 330 330 334 338 340 338 339 341 331 329 329 335 334 333 331 329 329 330 332 332 330 329
303 303 302 302 303 303 303 303 303 305 307 310 311 314 312 313 315 319 324 323 328 324 332 332 332 332 331 335 334 332 332 333 332 338 335 332 336 333 332 331 331 332 333 332 331 331 331
302 302 301 302 302 303 303 303 303 304 306 307 308 311 314 317 320 323 320 320 328 335 335 331 332 334 331 327 331 332 332 333 334 336 338 343 344 334 331 334 334 332 333 334 337 338 336
303 302 301 302 302 303 303 303 304 304 305 306 307 311 313 313 314 317 316 317 320 324 332 332 331 329 327 327 335 338 335 335 337 336 341 340 340 344 340 333 333 335 333 338 339 339 337
303 303 302 301 302 302 303 304 304 304 304 306 307 309 313 312 317 315 314 317 319 321 324 328 329 328 327 328 334 336 340 339 340 337 338 341 341 343 342 344 348 335 338 337 339 342 337
303 303 303 303 302 302 302 303 304 304 304 306 307 309 312 312 313 313 314 312 314 317 324 325 322 328 327 328 330 333 330 334 340 339 345 342 340 340 341 344 341 338 340 336 341 339 337
302 302 303 303 303 302 302 303 304 304 304 306 306 309 311 314 312 312 313 312 311 313 320 320 323 329 330 334 330 330 330 330 334 337 336 343 342 339 340 341 343 339 340 346 341 339 339
301 302 302 302 302 302 302 303 304 304 304 305 307 307 309 313 313 312 311 311 312 313 312 314 319 327 331 333 334 335 331 332 337 339 339 348 344 349 350 348 340 338 336 334 333 335 335

GFSGBSN_925_thetae_015.txt.gz
Theta_e
309 309 309 309 308 308 308 308 308 306 304 303 303 302 302 303 303 303 303 304 304 305 305 307 308 314 315 319 317 320 319 318 322 323 324 320 323 325 327 324 329 337 340 341 343 343 343
309 309 309 309 308 308 307 306 306 306 305 304 304 302 302 302 303 303 303 304 305 305 306 307 309 311 317 315 319 318 323 322 322 326 322 320 320 324 326 324 331 339 341 343 343 341 342
308 308 308 308 308 307 308 308 306 305 305 304 303 303 302 302 302 303 303 304 306 306 307 309 312 317 321 318 320 321 322 324 325 323 318 322 321 322 323 325 328 341 344 347 346 344 340
307 307 307 307 305 305 305 306 307 305 305 304 303 302 303 302 302 302 303 305 306 307 311 315 313 320 316 321 323 328 322 322 322 322 322 321 321 322 324 323 335 341 341 352 348 347 344
308 307 307 308 306 305 304 304 304 305 305 304 302 302 302 302 302 302 303 306 307 317 320 315 319 321 322 323 327 328 325 322 321 321 321 321 321 320 322 323 330 333 351 345 350 345 348
308 308 308 307 307 305 305 304 305 305 304 303 303 302 302 302 302 302 304 306 314 326 325 322 324 324 321 323 327 327 326 323 321 317 319 318 317 318 320 321 328 343 343 347 351 350 347
308 308 307 306 305 306 306 305 305 305 304 303 303 302 302 302 302 302 305 308 308 315 326 325 322 323 323 324 326 327 324 320 316 316 317 317 318 319 319 324 325 330 338 348 348 344 350
307 306 305 304 304 306 306 305 305 304 304 304 303 303 302 302 302 304 310 307 311 313 312 315 319 322 323 325 327 325 326 321 317 315 315 317 318 319 321 325 326 327 338 343 340 344 349
305 305 304 304 305 305 305 304 303 303 304 304 304 303 302 302 302 312 303 306 311 308 312 316 317 319 320 324 326 326 323 320 318 315 315 315 318 321 326 329 330 327 329 338 340 343 346
305 304 305 305 305 304 303 304 303 304 304 304 304 303 303 303 304 303 306 308 307 309 317 319 320 320 321 324 326 327 323 320 319 319 316 317 318 323 328 329 329 330 327 334 340 343 349
304 305 305 305 305 304 304 305 306 305 303 304 305 303 304 305 305 306 307 305 306 312 324 321 323 323 321 322 323 324 323 321 321 318 317 318 320 321 326 329 329 330 326 327 338 340 344
305 305 304 305 305 304 304 305 305 302 302 304 305 303 304 305 305 304 305 306 311 319 327 326 325 324 324 323 324 322 322 321 321 318 318 317 320 321 321 324 328 328 326 322 324 333 344
306 304 305 305 303 303 304 303 303 302 301 303 304 302 303 305 305 305 306 307 317 321 321 324 322 321 321 323 322 324 320 319 322 321 317 319 319 320 325 325 324 323 321 323 329 339 343
305 304 305 304 303 302 304 304 304 302 300 302 304 302 304 304 304 305 305 308 319 320 320 319 320 321 324 324 323 324 319 321 318 318 317 317 319 319 321 323 323 321 321 322 325 327 331
305 304 304 304 303 302 301 304 305 302 301 303 303 304 306 307 307 306 305 309 314 318 322 323 320 323 322 322 322 324 319 320 321 316 319 317 319 321 321 322 322 323 321 320 321 324 327
305 305 304 304 303 302 302 303 304 301 300 304 305 305 307 311 308 306 306 307 311 316 318 319 320 320 322 321 321 320 322 320 320 317 316 317 320 318 322 322 321 322 320 324 320 327 331
305 305 303 303 303 302 303 303 303 301 301 305 304 303 307 311 309 305 305 306 309 311 312 318 320 320 320 320 320 320 320 321 321 320 318 314 317 319 322 321 323 323 321 321 320 322 326
304 304 303 304 303 303 303 303 302 301 302 305 302 301 310 309 311 306 309 309 311 313 312 313 315 316 317 319 318 319 320 320 322 321 317 315 316 320 319 320 321 319 321 320 324 323 323
304 304 304 303 303 303 303 303 302 301 302 305 305 302 309 309 310 313 314 317 316 315 314 315 314 315 316 318 318 318 320 321 324 323 320 315 314 317 318 319 321 323 322 321 319 320 328
304 303 303 304 302 303 303 302 302 302 301 305 305 310 309 307 307 312 314 317 321 320 318 316 315 315 318 317 316 318 323 324 328 322 332 322 312 320 321 321 321 324 324 323 323 324 323
303 303 303 304 304 302 302 302 302 302 301 306 305 312 309 312 312 309 310 315 322 321 319 321 322 322 323 326 324 326 327 329 332 331 331 319 318 316 320 321 322 323 325 324 325 324 327
303 303 303 303 302 302 303 302 302 302 302 307 309 309 309 310 307 309 312 316 317 317 316 325 322 323 326 325 327 329 329 329 331 328 325 317 318 319 320 320 321 323 323 325 325 323 326
303 303 303 303 302 303 302 302 302 302 302 304 304 305 307 312 309 311 314 313 316 315 316 317 329 328 328 326 326 325 325 327 328 329 328 317 321 317 322 322 323 325 324 325 326 327 327
303 303 303 303 303 303 302 302 303 302 302 302 302 305 310 313 311 311 312 312 314 315 314 317 324 328 327 321 323 324 321 323 328 332 327 325 320 318 322 323 326 324 330 327 334 336 335
303 303 303 303 304 303 302 303 303 303 302 303 303 305 309 313 312 313 312 311 312 311 315 320 323 319 315 320 323 330 330 329 333 335 330 328 320 328 324 324 326 333 336 337 334 334 334
303 303 302 303 303 302 301 302 303 304 302 303 302 303 305 311 312 311 311 310 313 312 312 320 319 315 320 319 325 330 335 333 336 334 331 328 325 328 330 326 330 336 335 336 335 335 333
302 302 302 302 302 302 303 301 303 304 302 304 302 304 305 310 310 310 310 309 309 316 311 317 315 320 323 322 323 328 328 333 340 338 338 339 338 334 335 336 335 334 335 334 338 334 332
302 302 301 301 301 302 302 301 302 303 303 303 302 302 305 309 309 309 310 310 309 311 314 315 314 322 325 330 332 331 332 330 341 340 341 340 343 343 337 335 340 332 334 337 334 329 329
302 301 301 301 301 301 302 301 302 302 303 303 302 304 304 306 307 308 308 309 309 309 310 309 309 320 322 323 327 327 335 333 337 343 337 339 339 343 338 335 331 333 331 330 330 327 329

GFSGBSN_925_thetae_021.txt.gz
Theta_e
310 310 310 310 309 309 309 309 309 309 309 309 308 303 302 302 302 302 302 303 304 306 305 305 307 307 314 319 320 320 320 321 322 322 322 323 322 325 329 332 330 336 339 342 343 345 348
309 309 310 309 309 308 309 308 309 309 308 309 307 303 301 301 301 302 302 303 304 305 306 306 308 310 317 318 318 319 319 323 325 324 322 322 323 326 329 329 333 336 341 346 344 346 349
309 309 309 310 308 308 308 309 308 308 308 308 307 304 302 302 301 302 302 303 304 305 306 310 316 315 318 319 318 318 318 322 324 323 323 321 322 327 327 328 332 342 347 347 346 347 348
309 308 308 309 308 308 308 308 307 307 307 307 303 302 302 302 302 302 303 304 305 307 314 320 313 320 320 319 321 322 321 321 323 322 322 321 321 322 325 331 343 345 345 349 348 346 347
309 308 308 308 308 308 307 307 307 307 307 307 303 302 301 301 302 302 303 305 309 317 314 315 320 320 324 324 324 325 325 320 323 322 321 320 322 322 324 339 345 345 346 348 351 346 349
308 308 308 308 308 307 306 307 306 307 307 304 301 301 301 301 302 302 305 309 317 325 321 322 324 326 326 325 322 324 325 320 321 321 322 321 321 322 325 335 339 346 348 348 351 348 349
308 307 307 307 307 307 306 306 306 306 306 303 300 300 300 300 301 302 304 308 315 317 318 325 325 326 323 322 321 324 322 319 320 322 322 321 321 322 326 335 337 342 345 347 350 348 349
308 307 307 307 306 306 305 305 304 305 304 303 300 299 299 300 302 306 302 308 309 307 310 310 311 315 317 320 321 323 322 324 321 323 319 321 321 322 324 330 337 344 346 347 348 349 348
307 306 306 306 306 306 304 303 303 304 305 306 301 299 300 300 302 306 304 307 306 306 309 313 312 314 316 316 319 320 324 323 324 322 320 321 321 321 323 326 329 342 345 347 347 348 350
307 305 305 305 305 305 304 303 302 302 303 305 301 298 299 299 303 303 307 307 306 306 317 321 319 320 319 320 320 320 323 325 321 326 319 319 320 320 323 326 329 333 340 345 347 350 352
306 305 305 305 305 305 305 304 303 302 302 301 300 298 300 304 304 306 305 304 305 309 322 321 321 320 321 323 322 322 323 324 327 323 321 324 319 321 322 325 328 332 335 341 346 349 349
306 306 306 306 304 304 305 304 303 302 302 301 299 298 300 304 304 303 303 304 309 321 323 323 325 324 323 323 323 324 324 324 324 325 320 324 319 321 323 325 328 329 332 335 342 345 351
307 306 306 305 305 303 304 304 303 302 302 301 299 298 300 304 306 303 304 307 316 321 320 322 323 321 321 324 324 324 325 326 328 328 326 324 323 322 322 325 329 330 334 338 341 348 342
306 306 304 304 304 303 303 304 303 303 302 301 299 299 301 303 304 305 304 309 316 317 320 319 320 321 321 322 324 323 326 325 327 328 328 327 325 323 322 324 327 329 330 335 341 340 338
305 305 305 304 304 303 303 302 304 303 303 301 299 302 303 305 307 305 305 306 311 315 320 319 320 321 321 322 322 323 325 324 326 328 327 327 326 320 322 323 329 329 330 331 332 328 336
306 306 304 304 303 304 303 302 303 303 302 301 303 302 302 307 308 304 305 307 308 315 319 320 322 321 323 322 322 323 324 324 326 325 327 324 325 322 321 323 324 327 328 328 330 338 335
306 306 306 304 304 302 303 303 302 303 302 301 303 304 305 307 304 306 306 305 307 310 315 317 319 320 321 321 321 321 321 322 322 323 326 326 323 322 322 322 324 324 326 327 330 332 337
306 305 305 304 304 302 304 303 302 303 302 302 303 302 306 306 311 306 308 308 307 310 310 313 315 318 320 319 320 320 320 322 321 320 323 324 326 327 323 323 322 323 325 328 332 334 330
304 305 304 304 304 302 303 303 302 303 302 302 304 305 304 306 313 313 313 314 316 311 312 312 312 314 316 317 318 318 318 319 320 321 324 321 324 327 327 325 322 323 324 325 326 328 338
305 305 304 304 304 303 303 303 303 303 302 303 304 308 310 308 308 311 314 314 316 318 319 312 314 315 315 315 317 318 319 320 321 320 331 324 326 327 328 328 326 325 323 324 324 329 328
305 304 304 303 303 304 303 303 303 302 302 303 305 309 310 315 314 314 312 312 313 315 318 318 320 316 317 318 319 319 321 320 321 323 329 332 335 331 331 328 326 325 323 323 325 327 329
304 304 304 303 303 304 303 302 303 303 303 303 306 308 306 309 310 312 311 312 314 317 317 319 321 322 323 323 325 322 323 324 324 327 327 326 331 329 332 330 327 326 325 324 324 324 327
303 303 304 303 303 304 303 303 302 303 303 302 302 303 304 305 308 310 311 311 313 312 314 316 316 316 319 323 325 324 324 324 325 330 336 335 328 328 328 329 325 326 326 326 326 326 327
303 303 303 304 304 304 304 302 302 303 303 302 301 301 304 304 306 309 311 311 312 312 312 312 312 315 317 317 318 323 322 324 327 330 333 337 334 328 332 326 326 326 326 326 326 326 327
304 304 304 304 304 304 304 302 303 302 303 303 302 302 303 304 304 306 309 311 312 312 312 312 313 313 314 316 325 331 331 331 330 333 334 337 335 338 336 332 328 332 336 327 325 329 330
304 304 304 304 304 303 303 303 303 302 302 303 303 301 302 302 301 302 308 309 311 311 312 313 313 313 320 327 329 333 334 333 336 339 334 335 336 339 336 333 332 333 336 336 337 332 337
303 303 304 304 304 303 303 304 303 302 302 303 303 302 302 304 303 304 305 308 309 311 312 311 314 315 323 332 333 331 332 333 339 338 342 343 347 342 341 336 334 338 337 336 338 337 337
303 303 303 303 303 303 303 302 301 301 302 302 303 303 303 304 303 303 303 304 308 310 310 311 313 319 325 334 337 333 335 337 339 339 339 343 346 348 344 342 338 335 336 341 339 337 337
304 304 303 302 302 302 302 302 301 301 302 302 303 303 302 303 302 302 302 303 305 306 307 310 314 312 320 326 329 331 339 338 343 342 338 342 342 346 343 341 335 331 335 333 333 336 337

GFSGBSN_925_thetae_024.txt.gz
Theta_e
310 311 311 310 310 310 309 309 309 309 309 308 305 302 301 301 302 302 302 302 303 304 305 305 305 307 318 324 323 321 320 322 326 324 324 325 326 326 327 334 340 344 340 341 340 345 346
309 309 310 310 309 309 309 309 309 309 308 309 308 304 302 301 302 302 302 302 303 304 305 306 307 310 322 321 321 320 327 330 330 325 324 324 325 326 328 333 339 340 339 342 341 345 348
309 309 309 309 309 309 309 309 308 308 309 308 307 302 301 301 301 302 302 303 304 305 307 307 315 317 321 321 320 321 321 324 327 325 325 323 324 325 328 332 334 337 341 344 344 347 350
309 308 308 308 308 309 308 308 307 307 307 304 303 301 300 300 301 301 302 303 305 310 312 318 319 322 323 321 321 322 322 324 324 326 324 323 324 326 329 333 337 338 339 345 348 349 350
309 308 308 308 308 308 307 306 306 306 306 304 303 300 299 300 301 302 302 304 310 316 315 315 325 326 325 324 326 327 326 325 325 324 324 323 325 326 328 334 338 340 342 342 351 348 350
309 308 308 308 308 307 306 305 305 305 306 304 304 301 299 299 300 301 304 305 318 323 323 325 326 328 327 328 327 326 327 324 326 324 324 324 325 326 328 333 340 342 342 340 346 350 351
308 308 308 307 307 306 306 305 304 302 302 302 305 302 299 299 300 302 304 311 322 326 327 327 328 328 326 325 324 327 325 324 325 324 323 323 325 326 328 332 337 339 341 341 343 349 351
308 307 306 307 306 305 306 305 305 304 302 301 301 300 299 299 301 306 307 313 311 309 314 317 317 319 322 323 323 327 325 325 326 323 323 323 324 327 329 330 334 336 340 341 345 349 350
307 306 306 306 305 304 304 305 305 304 303 301 300 300 299 300 301 309 309 313 309 308 315 318 318 318 319 319 322 325 327 326 326 325 323 324 323 326 327 330 334 338 340 341 345 350 349
307 306 306 307 306 305 304 305 305 304 303 302 301 300 300 298 306 307 312 311 309 308 318 323 321 322 321 321 321 323 326 327 326 326 324 324 324 324 325 327 332 338 338 340 344 350 352
306 306 306 306 306 305 304 303 304 304 304 303 302 300 301 302 305 310 309 308 307 311 324 323 323 322 324 325 325 323 323 327 326 326 326 324 323 323 324 325 330 334 336 339 342 347 347
305 305 306 305 305 304 304 303 303 303 304 304 303 301 300 306 307 307 307 307 311 322 323 323 325 325 326 326 326 325 323 326 326 326 326 325 325 323 324 325 326 331 334 337 340 343 348
306 305 305 304 304 304 303 303 302 302 304 304 303 301 300 305 308 307 307 309 317 320 322 322 325 325 324 326 327 326 324 325 327 329 329 326 325 323 323 324 325 329 334 343 345 345 347
308 307 306 305 304 303 303 304 303 302 303 303 303 301 306 306 307 308 308 310 316 319 320 323 323 324 324 324 325 326 326 325 325 327 328 328 326 325 323 324 326 328 334 340 344 343 344
307 308 307 306 306 303 304 302 302 302 303 303 302 304 305 308 308 308 311 310 315 317 319 319 323 325 325 325 324 327 327 326 325 326 328 328 328 325 325 324 326 328 334 335 338 339 341
306 307 307 306 306 304 304 302 303 303 303 303 303 305 306 307 310 311 310 310 313 314 316 320 321 323 325 326 325 325 327 326 325 325 328 328 329 326 325 325 325 328 331 335 337 343 342
306 305 304 304 303 304 304 302 302 303 303 303 305 307 310 310 310 313 314 311 311 313 313 317 320 322 323 323 325 324 326 326 326 325 327 328 328 328 326 326 325 326 330 333 335 336 340
306 304 304 304 303 304 303 302 302 303 303 304 304 307 309 309 313 312 312 313 309 310 312 313 316 319 320 321 323 324 324 324 324 327 327 328 329 329 326 325 325 326 329 333 337 341 337
304 305 305 305 304 304 303 303 303 303 303 304 307 306 306 307 310 311 312 312 313 313 312 312 312 315 317 319 322 323 323 323 322 324 329 329 331 332 329 324 324 325 327 329 333 334 342
305 305 305 305 304 304 304 302 302 303 303 303 306 306 309 313 312 313 314 316 316 314 315 314 314 314 315 317 320 322 321 321 320 321 334 327 331 332 332 328 325 324 324 327 329 336 335
304 304 304 304 304 304 303 302 302 303 303 303 306 307 311 310 314 316 317 317 316 316 316 318 319 315 315 316 318 318 320 321 323 327 324 324 330 331 330 329 328 328 325 324 325 327 331
304 304 304 304 304 303 303 303 303 303 303 304 306 307 308 308 308 309 308 311 315 315 316 319 320 319 316 317 318 319 319 320 322 323 325 329 334 335 334 330 329 329 328 327 325 325 326
304 304 304 304 304 304 304 304 303 303 303 304 304 304 305 306 305 306 308 309 311 314 315 316 319 319 323 322 323 324 325 325 322 324 327 328 330 336 336 334 333 333 331 330 329 327 325
304 304 304 304 305 304 304 304 303 302 302 303 304 303 305 307 307 306 307 309 310 310 311 313 315 315 319 318 319 322 325 327 327 328 329 334 337 334 337 335 337 333 332 331 330 329 328
304 304 304 304 305 305 304 304 304 303 303 303 303 303 304 307 306 305 305 306 307 309 310 312 311 312 315 317 322 327 330 330 329 328 328 330 338 337 339 338 334 332 331 332 332 332 330
303 303 303 304 304 304 305 304 304 304 303 303 303 303 303 306 305 305 306 308 310 311 311 310 312 314 316 319 325 331 329 329 328 327 328 331 335 341 341 339 340 343 341 339 340 337 331
303 303 303 304 304 304 304 304 304 304 303 302 303 304 302 305 305 306 307 307 308 309 312 313 313 315 320 329 331 332 330 327 328 332 339 340 341 341 339 340 338 341 338 338 339 337 343
303 303 304 304 303 302 302 303 304 302 302 302 303 303 303 304 304 306 306 306 307 307 312 313 312 319 323 331 332 331 333 331 331 334 340 340 340 338 339 342 343 337 339 341 345 345 342
303 301 303 303 302 302 302 303 303 302 301 302 303 302 304 304 304 304 304 304 305 305 306 308 311 315 315 324 328 330 337 338 336 339 339 339 336 336 342 342 338 335 339 337 338 342 347

GFSGBSN_925_thetae_027.txt.gz
Theta_e
311 310 310 310 310 309 309 309 309 309 309 309 306 301 301 301 301 301 301 302 303 304 304 305 306 306 318 325 324 326 320 322 327 331 336 332 333 334 339 335 339 346 343 341 340 342 343
310 310 310 310 310 309 309 309 309 308 308 306 301 301 300 300 300 301 302 302 303 304 305 306 307 308 322 323 322 326 325 332 328 327 327 327 329 331 331 333 338 343 342 341 340 342 343
310 310 309 309 309 309 308 308 308 308 308 308 306 302 301 300 300 300 301 303 303 304 307 309 309 317 322 324 322 322 326 326 326 327 327 325 326 328 330 331 335 340 342 342 341 342 343
309 309 309 309 309 308 307 306 305 303 302 302 302 301 300 300 300 301 301 303 304 306 315 316 317 324 324 324 323 322 322 323 324 327 326 326 325 328 329 331 336 339 341 344 342 341 346
310 309 309 309 309 308 305 307 305 305 303 302 301 300 300 300 300 301 302 304 306 318 316 317 327 328 328 324 324 322 322 324 325 325 327 326 325 327 329 331 337 339 343 342 344 342 348
309 309 309 308 308 307 305 307 306 305 305 303 302 301 299 300 300 301 304 308 310 321 324 327 328 330 327 327 327 327 327 326 326 326 327 326 326 326 330 333 339 343 342 343 348 342 348
309 308 307 307 307 306 305 304 305 305 305 304 303 302 300 299 300 301 308 315 323 330 327 330 331 327 327 327 327 326 327 326 327 326 326 325 325 327 331 333 337 341 343 343 344 341 347
309 308 307 306 307 307 306 305 304 305 305 304 304 303 301 299 301 306 311 317 314 312 315 318 321 323 327 326 327 328 327 325 327 326 325 326 325 327 331 332 335 338 342 342 340 343 345
306 307 307 307 306 306 305 305 304 303 304 304 304 304 303 300 302 313 310 316 313 312 315 319 321 321 322 323 325 326 328 326 326 326 325 325 325 326 330 332 335 336 341 342 340 348 347
307 306 305 306 306 305 305 304 304 303 303 303 304 304 303 299 308 309 314 314 312 311 318 322 322 322 322 322 322 325 327 327 326 327 325 325 326 326 329 331 334 336 337 338 339 349 351
307 307 305 306 305 305 304 304 303 304 303 302 303 304 303 302 306 312 311 310 310 314 325 327 325 324 324 323 327 324 325 328 327 327 327 326 325 326 327 330 333 335 336 338 340 344 349
307 308 308 307 306 305 304 303 304 303 302 303 302 303 303 306 308 310 310 311 312 321 325 326 326 325 326 325 327 327 325 328 328 328 327 327 327 326 327 329 331 333 336 339 339 341 348
307 307 308 308 307 306 305 303 303 302 302 302 303 303 303 305 309 311 309 312 316 321 325 326 327 326 328 328 328 328 325 327 329 329 329 327 327 326 326 327 329 331 335 340 341 342 344
308 307 307 308 307 307 305 305 303 302 302 303 303 303 306 308 309 310 309 313 317 322 323 326 326 328 327 327 328 329 327 326 327 328 329 329 329 327 326 326 328 330 333 338 343 341 341
308 308 307 307 306 305 304 304 303 302 303 303 303 306 308 309 310 309 314 312 317 320 323 324 325 326 328 326 327 329 329 327 327 328 330 330 330 328 327 326 326 329 334 333 337 338 341
307 307 306 305 304 305 304 304 304 303 303 303 305 308 310 310 311 311 314 315 317 318 321 321 324 326 328 327 326 327 329 329 327 327 328 329 331 330 328 327 325 327 330 334 337 345 346
306 306 305 304 304 305 304 304 304 303 303 303 307 309 312 311 312 315 317 315 315 316 316 318 320 324 326 327 327 328 327 328 328 328 327 328 330 330 329 328 327 325 329 331 333 337 341
305 305 305 305 305 305 305 304 304 303 303 306 308 311 311 311 314 315 316 316 315 317 317 316 317 319 323 325 326 328 328 327 328 328 328 328 329 332 331 329 328 327 327 329 340 340 337
305 305 305 305 305 304 305 304 304 302 303 305 310 311 309 309 312 311 313 315 315 316 317 317 315 316 319 322 326 326 327 327 326 327 328 328 330 332 333 330 329 328 327 327 329 334 344
305 305 305 305 304 305 305 304 303 303 303 304 309 311 311 312 312 311 312 314 316 317 315 316 316 316 316 318 322 324 324 325 325 325 341 330 329 331 333 333 330 329 327 327 328 334 336
305 305 305 305 304 305 304 303 303 303 303 303 309 310 310 314 312 313 315 317 317 319 318 318 317 317 316 317 318 320 321 325 325 331 326 327 332 331 330 331 331 328 327 326 327 329 333
305 305 305 305 305 305 305 303 303 302 303 303 308 310 310 310 310 311 310 311 310 311 315 317 319 319 319 318 319 319 320 323 325 325 325 327 332 333 334 331 331 331 327 326 326 327 329
304 304 304 305 305 305 305 305 304 303 303 305 306 306 308 308 309 309 309 311 310 311 314 315 316 320 324 322 322 323 324 322 323 326 327 328 329 331 333 332 332 332 331 330 328 327 327
303 304 304 305 305 305 305 305 305 303 303 304 304 304 308 309 307 309 310 308 311 310 311 311 310 313 316 315 318 322 323 325 323 323 325 328 332 332 334 335 337 333 331 330 330 330 330
303 303 304 304 304 305 305 305 305 305 304 303 303 304 306 308 306 307 308 309 308 310 309 308 309 310 312 316 323 325 323 324 327 326 325 327 330 332 334 335 336 333 333 333 332 333 332
303 303 303 303 304 305 305 305 305 305 304 304 305 304 302 306 307 307 309 307 308 310 311 311 310 311 314 317 322 327 325 324 326 328 327 329 333 335 335 335 336 334 340 340 338 337 334
303 303 303 304 304 305 305 304 305 305 304 304 305 305 303 304 306 306 307 308 309 310 313 313 314 314 314 317 323 325 324 323 326 326 327 329 333 334 339 338 335 344 340 338 339 339 346
303 303 303 303 304 304 302 303 303 304 304 303 304 304 302 304 305 307 307 307 307 308 310 313 314 316 319 324 327 324 326 326 327 330 331 331 334 333 335 338 345 341 340 340 345 348 348
302 303 303 303 302 302 302 303 303 304 304 303 304 305 304 305 305 305 305 305 307 308 309 309 312 311 315 323 324 325 332 334 334 334 330 332 332 332 334 337 344 341 345 342 341 344 347

GFSGBSN_925_thetae_030.txt.gz
Theta_e
311 310 310 310 310 309 309 309 309 308 306 305 303 301 301 301 301 301 301 301 302 303 304 304 305 307 316 324 325 324 322 321 324 328 329 333 335 337 339 341 341 352 349 349 341 340 342
311 310 310 310 310 310 309 309 309 308 305 303 302 301 300 300 300 301 301 301 302 303 305 305 308 310 321 319 322 325 324 329 326 328 330 334 334 334 336 339 338 337 346 344 340 340 343
310 310 310 310 310 309 307 308 309 308 306 305 303 301 300 300 300 300 301 302 303 304 305 307 313 317 321 321 324 326 325 328 327 328 328 328 332 331 334 333 334 335 342 342 341 340 343
310 310 310 309 309 309 307 306 307 306 306 305 304 303 300 300 300 300 301 302 304 305 307 317 317 322 322 321 323 323 323 325 327 328 327 326 326 327 329 331 332 333 338 345 342 340 341
310 310 309 308 309 308 308 307 306 306 307 305 305 304 302 300 300 301 301 304 307 308 316 317 325 328 328 325 326 325 323 324 324 324 327 327 327 326 328 329 331 334 339 343 343 341 343
309 309 309 308 307 307 307 306 307 305 304 306 304 304 304 301 300 301 303 310 313 312 323 326 327 332 331 328 327 325 323 323 324 326 327 327 327 326 326 329 332 334 339 341 346 344 342
308 307 306 306 307 307 307 306 305 305 304 303 304 303 304 302 300 301 304 315 323 325 325 332 330 326 326 328 328 328 325 324 326 327 325 327 327 327 327 329 332 334 339 341 345 345 343
308 307 307 306 306 305 306 305 304 304 304 304 304 303 302 302 301 303 307 318 318 315 315 317 319 326 329 329 329 328 327 328 328 327 326 327 326 326 328 330 332 334 338 343 345 347 348
308 307 307 307 306 305 305 305 304 303 304 303 303 303 302 302 303 310 313 313 316 315 315 317 319 319 323 329 329 329 328 328 327 326 327 326 326 326 327 329 333 334 337 341 344 346 344
308 308 307 308 308 306 306 305 305 304 304 303 302 302 303 302 311 309 313 315 313 313 316 321 323 321 321 323 324 328 328 328 326 327 328 327 326 326 325 328 332 334 335 338 342 345 348
309 308 307 308 309 308 307 306 305 305 303 302 302 303 303 301 306 311 314 313 312 314 323 328 325 325 324 322 325 324 326 329 327 326 327 327 326 326 325 326 331 334 335 337 338 343 348
308 308 308 307 307 308 307 306 305 305 304 302 302 303 303 306 308 310 312 312 314 317 323 328 327 325 324 323 323 327 324 326 329 327 327 328 328 326 326 326 329 332 334 336 337 339 347
309 308 308 308 307 307 307 305 304 304 304 302 303 303 303 306 308 310 311 313 315 320 326 328 328 327 326 324 323 328 325 325 328 331 328 328 328 328 327 326 328 330 333 339 341 343 342
308 307 307 308 306 305 304 305 304 304 304 302 303 304 308 308 310 311 311 314 318 323 322 328 328 328 327 328 325 325 328 326 326 329 329 329 329 327 328 326 327 328 331 338 344 344 343
306 305 306 306 306 304 305 305 304 304 304 302 303 308 309 309 311 311 314 315 318 321 324 325 326 327 329 328 329 328 329 328 326 328 331 331 330 329 328 328 327 328 330 331 335 337 341
305 305 306 306 305 305 305 305 304 304 303 302 305 308 312 312 312 313 314 316 318 318 320 322 324 326 328 329 329 329 330 330 327 327 329 330 331 330 329 328 327 327 329 330 332 341 345
305 305 305 305 305 305 305 305 305 305 303 302 307 312 311 312 313 315 317 316 317 317 318 318 319 320 322 327 329 329 328 330 330 328 327 328 331 330 331 330 328 326 326 328 330 335 341
305 305 304 304 304 304 304 305 305 304 303 305 308 311 312 313 314 315 316 316 315 318 319 319 320 319 319 320 325 328 329 329 330 330 329 328 329 333 330 331 330 328 329 328 331 341 336
305 304 304 304 304 304 304 304 304 304 303 305 309 310 309 310 313 312 313 313 314 316 317 319 320 320 320 319 323 323 327 329 329 329 330 331 330 333 332 330 331 330 328 326 326 328 339
305 305 305 305 305 304 304 304 303 303 303 304 308 310 310 312 313 312 314 317 316 315 315 318 320 320 320 320 320 323 324 325 327 329 343 332 330 333 332 333 331 333 330 329 327 329 331
305 305 305 305 305 305 305 304 303 303 303 304 307 309 310 312 312 314 315 315 316 317 317 318 319 320 320 323 318 319 320 322 325 335 328 329 332 331 330 328 331 331 331 329 330 331 332
303 303 304 304 304 305 305 305 304 303 303 304 306 308 309 310 309 309 309 311 312 313 313 314 318 318 320 323 325 323 323 325 325 327 327 329 334 330 331 329 329 331 331 331 331 330 330
303 303 304 304 304 304 304 305 304 304 303 305 305 306 309 309 308 309 308 309 312 312 313 313 315 316 317 316 317 317 318 320 323 327 332 332 330 336 335 331 331 332 333 332 330 331 330
303 304 304 304 304 305 305 305 304 304 304 305 305 306 307 307 309 309 308 308 310 311 312 313 312 312 312 311 314 319 321 322 323 325 324 335 335 333 335 336 338 332 331 331 333 330 328
303 304 304 304 304 304 305 305 305 305 305 305 305 306 305 308 308 307 309 308 310 311 312 310 311 310 310 312 319 323 323 324 324 324 325 329 334 332 336 334 332 333 332 332 333 336 333
304 304 304 304 304 304 305 305 306 305 304 305 304 305 304 306 306 306 308 308 307 311 312 312 312 313 312 312 318 326 329 324 326 325 325 326 335 335 335 334 335 335 331 332 332 338 337
303 304 304 304 304 304 305 304 304 305 304 305 305 305 304 304 305 306 308 308 308 309 312 312 314 315 314 315 319 321 325 325 325 329 332 328 332 331 332 334 332 332 333 337 341 345 347
302 302 302 303 303 304 303 303 303 303 303 305 305 305 306 303 304 306 306 308 308 308 308 311 312 315 315 318 321 321 325 325 325 326 330 331 332 330 334 338 336 336 339 340 350 350 348
301 302 302 302 302 303 303 303 304 304 304 304 305 305 305 305 305 305 306 306 307 307 308 309 311 312 315 320 323 325 326 331 332 331 327 331 328 333 335 337 347 341 348 345 343 345 346

GFSGBSN_925_thetae_033.txt.gz
Theta_e
311 312 311 311 311 310 308 309 310 309 308 307 305 303 302 300 300 300 301 301 301 302 303 303 304 306 312 323 321 320 321 320 321 324 329 327 325 330 336 338 345 345 342 341 341 341 341
311 311 310 311 310 310 309 309 308 306 306 305 305 304 303 302 301 300 301 301 301 302 303 304 307 313 320 316 316 318 322 321 326 327 327 326 327 331 334 335 343 346 344 343 342 343 341
311 311 310 310 309 309 309 310 309 308 306 305 304 303 303 302 301 301 301 301 302 303 304 306 312 320 321 316 319 324 324 323 324 328 325 326 328 331 332 332 332 334 345 345 342 340 341
308 308 308 309 308 307 307 307 307 307 306 305 304 303 303 301 301 301 301 302 303 305 307 308 318 322 321 316 319 320 321 326 329 326 327 327 328 326 327 325 327 329 328 330 341 337 340
309 308 307 306 307 307 307 306 306 305 305 305 304 304 303 302 302 302 302 303 306 312 311 316 322 324 328 324 322 321 322 322 325 328 326 327 325 324 324 323 323 325 328 329 342 340 341
309 308 307 307 306 306 306 306 305 304 304 304 304 303 302 303 302 302 303 306 316 313 320 324 325 328 330 326 327 324 324 323 324 324 322 324 324 323 321 321 324 326 328 329 342 341 345
309 308 307 307 308 307 306 306 305 305 304 304 304 302 302 302 303 304 304 309 316 320 323 331 327 327 323 326 328 326 325 323 321 321 321 322 323 324 323 322 324 327 329 330 339 343 348
309 309 309 307 308 309 308 307 306 305 305 304 304 302 302 302 304 306 311 314 314 315 314 315 316 319 326 326 329 327 325 321 320 320 321 323 324 324 325 325 325 326 328 330 345 343 342
310 310 308 308 307 307 309 308 307 306 305 304 303 302 302 302 305 312 307 310 313 313 311 313 314 315 316 318 323 328 324 322 322 322 325 324 324 325 325 325 326 326 327 330 347 345 344
309 309 309 308 308 308 308 308 307 305 304 304 303 302 302 302 310 306 309 314 313 313 311 316 317 317 317 317 322 326 326 325 326 326 326 324 324 326 325 324 325 326 328 332 344 345 350
309 309 309 308 308 308 307 306 305 304 304 304 303 303 302 302 305 309 312 311 311 313 319 324 321 321 317 317 322 325 328 326 326 325 324 324 325 325 324 324 324 326 329 332 332 343 346
309 308 308 307 307 307 306 305 304 305 304 304 303 303 302 304 305 307 308 310 313 314 319 323 324 320 318 317 319 323 326 324 327 325 324 325 326 325 324 324 324 325 327 329 330 334 347
308 306 305 305 306 306 306 304 305 305 304 304 304 303 303 305 306 309 309 311 312 315 322 326 324 324 320 319 319 320 322 323 324 327 326 324 325 325 326 323 323 323 322 328 331 334 336
306 306 305 305 306 306 305 305 305 305 304 304 304 303 305 308 309 310 310 312 316 321 319 322 323 326 324 323 320 320 320 322 323 324 326 327 325 325 325 323 322 322 321 326 332 335 335
305 305 305 305 304 304 305 305 305 304 304 304 303 304 306 307 309 310 312 315 316 319 320 319 319 322 325 326 325 322 321 322 322 323 324 327 327 327 326 326 323 323 322 323 325 329 333
305 305 305 305 304 304 304 304 304 305 304 304 304 305 307 309 312 311 313 315 316 317 316 316 317 320 320 319 321 325 322 323 324 323 322 324 328 327 327 326 325 322 324 323 324 326 333
305 305 304 304 305 304 304 304 304 304 304 304 305 309 308 308 311 313 314 314 315 315 316 317 318 319 319 319 319 319 322 325 325 325 323 323 324 327 328 326 324 322 322 321 323 326 328
304 304 304 305 305 305 305 304 304 303 303 305 305 308 307 308 310 313 314 314 313 315 315 316 317 318 319 319 319 320 319 319 326 328 325 324 324 326 326 328 326 325 322 320 323 327 328
304 304 304 304 304 304 304 305 304 304 303 304 305 306 306 307 309 311 312 313 313 313 315 315 316 316 318 319 320 320 321 321 320 321 328 325 325 325 326 325 326 325 325 322 321 320 324
303 304 304 303 303 303 303 303 304 304 303 304 306 307 307 308 309 311 313 315 316 314 313 314 314 316 319 318 320 321 321 321 320 320 337 335 326 325 326 326 328 330 326 325 322 322 321
304 304 304 303 304 304 304 304 304 304 303 303 307 306 306 309 309 308 312 313 313 313 312 313 314 315 317 322 321 322 323 321 321 324 324 321 326 327 325 327 328 327 329 327 325 324 323
303 303 304 304 304 304 304 304 304 304 304 304 306 306 306 306 307 307 308 309 310 311 312 312 313 316 315 318 318 317 316 317 319 320 319 319 329 330 330 328 326 327 328 327 327 326 325
304 303 304 305 305 305 304 304 304 304 304 304 305 305 307 306 306 306 306 308 309 310 311 311 311 314 314 313 313 313 312 313 315 318 320 320 323 331 329 329 330 330 326 327 329 328 327
303 304 305 305 305 305 305 305 304 304 304 303 304 306 306 306 305 306 306 306 309 309 311 310 311 311 312 311 310 312 315 317 319 321 321 322 322 327 330 331 333 331 328 327 329 331 329
303 303 304 305 305 305 305 305 305 305 304 304 305 305 305 307 305 305 305 306 308 308 308 309 310 311 310 312 315 316 318 320 320 322 321 322 323 328 331 330 329 332 330 332 329 329 331
303 302 303 304 305 305 305 305 306 304 304 304 304 305 305 306 306 305 307 307 307 308 310 309 309 310 313 311 318 319 323 323 326 323 321 321 322 328 329 329 330 330 332 330 330 334 342
301 302 302 303 303 304 305 305 305 305 304 304 305 304 304 304 304 304 306 307 307 308 309 308 312 310 312 317 318 318 318 317 324 328 325 324 326 329 331 328 329 332 329 328 333 336 348
301 302 302 302 302 304 305 305 305 305 305 304 305 305 305 303 303 304 305 306 306 307 308 309 310 311 313 319 317 320 319 320 325 326 328 332 332 331 329 334 335 342 334 345 350 347 347
301 301 301 302 302 304 304 304 304 305 305 304 305 304 305 306 306 305 304 305 305 307 307 308 310 310 312 317 318 316 323 325 328 333 326 331 333 338 336 335 343 342 344 342 343 348 345

GFSGBSN_925_thetae_036.txt.gz
Theta_e
311 311 311 311 310 310 310 310 310 309 308 307 306 305 304 304 303 302 302 302 302 302 302 302 304 306 314 321 317 317 320 321 321 320 328 328 323 322 328 333 346 347 346 345 344 343 341
309 309 309 310 309 308 308 309 309 306 305 305 305 305 304 304 304 303 303 303 303 303 303 303 305 314 316 309 314 316 316 319 322 327 330 326 324 323 326 333 345 344 343 343 344 342 341
310 309 308 307 306 307 307 307 306 305 305 305 304 303 303 304 305 304 304 305 305 305 304 306 309 317 320 312 316 320 320 319 321 322 323 325 326 326 328 330 338 342 339 344 343 341 342
309 308 308 308 308 307 306 306 306 305 305 305 304 304 303 302 304 304 305 307 307 306 310 312 312 321 319 313 315 315 316 318 324 325 326 326 325 324 326 325 324 324 335 344 342 342 339
310 309 309 308 308 308 309 308 307 306 305 305 304 304 303 301 301 302 304 307 308 313 312 313 320 321 321 321 322 319 317 319 322 327 327 326 324 323 324 323 320 321 323 326 327 335 342
310 310 310 309 309 308 308 309 309 307 306 304 304 303 303 301 301 302 304 309 315 318 323 323 324 324 320 324 327 324 321 320 320 324 325 323 322 321 318 318 321 322 324 325 331 343 343
310 310 310 309 309 309 309 308 309 308 306 304 304 304 303 302 301 302 308 313 309 312 322 324 325 325 321 324 327 324 322 320 319 320 321 318 321 324 321 319 320 322 323 324 328 337 343
309 309 309 310 309 309 309 307 307 306 304 304 304 304 303 302 301 306 308 310 313 311 308 312 315 318 321 323 325 326 323 320 319 318 317 319 319 321 322 321 321 321 322 323 341 344 345
309 309 309 309 307 307 308 307 306 304 304 304 304 303 303 303 303 308 306 308 310 309 308 310 312 314 314 317 319 320 321 319 320 318 318 318 320 322 323 323 324 321 322 323 328 343 343
309 309 308 307 305 305 306 306 306 304 305 305 304 304 304 303 304 303 309 309 309 309 308 312 311 312 313 314 314 318 323 321 318 319 318 318 320 323 323 323 323 322 323 324 328 337 343
309 307 306 305 304 307 307 306 305 304 304 305 304 304 304 303 304 306 305 308 309 308 320 321 317 315 312 314 318 319 321 321 320 322 320 322 323 323 323 323 323 323 323 324 327 340 342
307 306 307 304 304 305 305 305 305 305 304 304 304 304 304 304 304 306 307 308 309 310 317 318 320 315 314 314 318 322 323 323 323 323 322 322 323 323 323 323 323 323 321 323 324 332 341
306 305 305 305 304 304 303 304 304 304 304 304 304 304 304 304 305 306 308 308 307 312 316 322 317 316 315 313 316 318 325 325 325 324 325 324 323 322 323 321 321 321 318 320 323 324 329
305 305 305 305 305 304 304 303 303 303 303 304 303 304 304 305 304 306 309 307 311 315 316 316 316 318 318 316 315 316 318 327 325 322 323 324 325 322 322 323 322 318 319 319 321 326 327
305 305 304 305 305 305 305 304 304 303 302 303 303 304 305 305 306 306 306 311 310 313 314 315 315 318 317 319 317 316 315 319 325 320 323 323 324 324 323 323 323 320 318 317 318 324 327
304 304 304 304 304 304 305 305 305 303 302 301 304 304 305 305 307 308 307 312 311 313 314 315 316 316 317 317 318 317 317 317 318 320 319 321 323 323 325 322 322 322 317 319 314 319 322
304 303 303 303 303 303 304 304 304 304 303 302 305 302 304 305 304 306 311 310 312 312 313 314 314 314 315 316 316 317 318 318 319 319 320 321 319 322 324 324 324 321 319 317 317 318 322
304 303 303 303 303 302 303 303 303 304 303 302 302 303 304 304 302 304 311 310 311 311 312 313 313 314 314 315 315 315 317 318 319 318 318 317 319 321 322 322 323 324 322 318 321 319 320
303 304 304 303 303 303 303 303 303 303 304 303 301 300 304 305 305 307 310 311 312 313 313 313 313 314 314 316 317 316 317 318 317 320 318 320 319 320 319 319 321 322 322 321 313 315 321
304 304 304 304 304 304 304 304 303 303 304 303 300 303 299 301 307 306 309 312 312 310 311 312 312 313 315 317 317 319 319 318 315 316 324 319 320 320 324 322 322 322 324 321 320 320 320
304 304 304 304 305 305 305 304 303 303 304 303 301 303 301 305 305 306 307 308 310 311 310 311 311 312 316 317 317 319 317 315 314 318 315 315 318 318 318 322 323 325 325 325 321 321 321
304 304 303 304 305 305 305 304 303 303 304 303 304 304 301 302 302 305 304 306 310 310 310 310 311 311 314 315 315 315 313 313 312 314 313 314 318 319 326 324 323 324 325 325 324 323 321
303 303 303 303 304 305 305 304 304 303 304 304 303 304 305 305 303 303 303 305 306 307 310 309 310 311 311 310 310 310 310 310 310 311 312 316 316 319 324 324 323 324 325 325 325 324 322
303 302 302 304 305 305 305 305 304 304 304 304 303 302 304 306 305 304 304 304 306 307 307 307 307 309 309 309 309 310 310 308 309 311 312 317 319 318 322 324 325 324 324 325 323 324 325
301 301 303 304 305 305 305 305 305 305 304 305 304 304 305 307 305 304 304 305 306 305 305 307 308 306 307 309 312 312 313 314 315 313 315 317 321 321 324 326 325 329 328 325 324 326 325
301 301 302 304 304 304 305 305 305 305 304 304 304 304 305 304 304 305 305 304 303 303 306 307 305 307 310 312 314 316 317 318 323 322 318 318 321 322 323 326 329 326 328 326 326 328 334
301 301 301 301 303 304 305 305 305 305 304 304 304 304 304 305 303 303 304 303 303 303 303 304 306 308 308 313 316 315 315 315 318 322 326 329 327 325 324 329 324 325 326 325 328 327 343
300 300 300 300 301 303 304 304 305 305 304 304 304 303 304 305 304 304 303 304 304 304 306 304 307 309 310 315 318 317 315 314 319 322 328 331 333 334 328 329 330 333 336 326 328 344 342
301 301 301 301 301 301 304 304 304 304 304 304 304 303 304 304 304 305 304 304 304 304 303 303 305 308 309 309 312 312 316 320 319 328 326 330 331 334 334 338 332 333 332 331 339 341 344

GFSGBSN_925_thetae_042.txt.gz
Theta_e
312 311 311 311 310 310 312 312 312 313 311 309 306 305 305 306 306 306 305 304 304 304 305 307 308 311 314 316 310 317 319 318 341 344 346 347 349 347 345 345 347 350 350 346 344 340 349
311 312 312 311 311 310 311 312 311 310 309 306 305 305 305 304 305 304 304 304 304 304 305 307 312 313 312 304 310 312 314 318 329 340 342 340 349 338 328 326 344 344 346 345 343 342 344
311 311 311 311 311 310 310 310 309 307 306 305 306 305 305 304 304 304 304 304 306 307 309 310 313 313 317 305 312 314 320 322 328 336 329 329 330 338 325 323 326 337 338 338 344 342 342
310 310 311 311 310 308 307 309 308 306 305 304 305 305 304 304 304 304 305 305 306 311 314 316 315 315 309 309 310 312 327 327 327 330 326 327 325 332 323 322 322 333 338 341 335 336 339
310 310 310 310 308 307 308 308 308 307 305 304 305 304 304 304 304 304 307 307 315 316 314 316 315 316 310 315 319 312 313 318 325 326 323 323 323 321 322 322 321 318 325 327 326 330 336
310 310 309 309 307 306 306 307 306 304 304 304 304 304 304 304 304 304 306 315 322 320 318 319 319 318 315 318 322 322 315 314 316 321 324 323 318 320 317 318 323 324 322 322 325 331 337
310 309 309 308 306 305 304 303 303 303 303 303 303 303 303 303 303 305 307 310 305 308 306 321 320 319 318 318 320 319 316 315 318 320 322 320 322 321 320 318 321 323 322 324 323 324 337
309 308 307 307 305 305 304 303 302 302 302 302 302 302 301 302 302 305 308 305 305 304 306 307 307 309 314 315 317 317 315 314 316 319 319 317 323 322 320 319 320 320 321 321 320 322 333
307 305 305 306 306 305 304 303 303 303 302 302 302 302 301 301 302 303 305 306 304 306 304 307 308 309 310 310 314 315 315 314 316 316 321 322 320 321 321 320 321 319 320 320 322 328 339
306 306 306 306 305 305 305 305 304 304 303 303 302 302 301 301 302 303 302 304 304 305 306 311 309 310 312 310 312 315 316 316 316 320 315 318 319 323 320 321 320 318 319 320 321 322 323
306 306 305 305 305 304 304 304 304 303 303 303 303 303 302 302 303 303 303 303 304 303 316 318 311 311 311 313 314 315 318 317 317 317 315 318 317 319 323 323 320 321 320 320 321 322 323
306 306 306 305 305 304 304 302 302 303 303 302 302 303 302 303 303 303 304 304 304 311 317 318 314 313 312 312 312 316 318 319 316 317 317 317 316 318 317 319 320 320 319 316 317 319 324
306 305 305 305 303 302 302 302 301 302 302 301 302 302 302 303 303 304 304 302 308 313 313 316 314 314 314 314 313 315 316 319 319 317 317 318 318 318 317 318 318 319 318 318 319 320 324
305 305 305 304 303 303 303 303 303 302 302 301 302 302 302 303 303 305 305 304 310 312 312 313 314 314 316 313 314 315 316 320 319 319 318 318 319 318 317 317 317 318 317 317 320 318 323
305 305 304 303 303 303 303 303 303 303 302 301 302 302 303 304 303 305 301 306 308 310 311 312 313 315 313 314 314 314 314 319 321 318 320 317 319 320 318 319 318 316 318 315 314 317 316
304 305 304 303 303 303 303 303 303 303 302 302 303 301 302 303 303 305 304 307 308 309 310 310 313 313 313 313 314 312 314 316 318 318 315 319 321 319 319 319 318 316 316 319 312 320 320
305 304 304 304 304 304 304 305 304 304 302 302 302 298 302 304 303 301 302 306 308 308 310 310 311 312 312 314 314 313 314 316 316 317 316 314 317 320 318 320 321 316 315 315 317 313 318
305 304 304 303 303 304 305 305 305 304 302 303 298 299 302 305 300 299 306 305 309 311 309 310 310 312 313 314 314 314 315 315 313 313 320 321 311 318 319 319 321 321 320 312 319 316 313
304 304 304 303 303 304 304 305 304 303 303 304 297 299 303 303 301 302 302 307 307 312 310 310 311 311 312 314 313 317 317 314 313 314 320 319 316 315 317 318 318 319 318 315 313 312 321
304 304 304 303 303 304 304 304 304 303 303 303 298 299 297 298 299 302 303 305 307 308 311 311 311 312 313 314 313 315 315 315 311 315 317 314 314 315 320 320 317 316 320 318 318 319 321
304 304 304 304 304 304 303 304 304 303 303 303 297 300 300 300 302 303 302 304 307 308 307 310 311 309 309 313 312 314 313 311 311 312 310 311 316 317 317 318 319 319 320 320 320 319 320
303 303 304 304 304 304 304 303 304 304 303 303 302 304 303 303 303 304 303 303 307 305 306 308 310 309 307 310 310 310 310 310 310 309 307 306 314 316 318 319 319 320 320 320 320 319 320
301 301 303 304 304 304 304 304 304 304 304 303 303 303 303 303 304 305 303 303 304 304 304 307 307 306 305 306 306 306 306 306 308 309 309 308 312 317 319 318 319 321 320 320 319 318 320
301 301 301 303 304 304 304 304 304 304 304 304 303 303 304 304 304 304 304 304 304 303 304 304 304 304 305 303 304 304 303 305 307 307 307 308 312 314 318 318 323 318 319 321 320 320 318
301 301 301 301 301 301 303 304 305 304 304 304 304 303 304 305 304 304 304 305 303 301 302 302 303 302 301 304 306 307 307 309 309 308 308 308 309 313 320 319 318 319 332 336 333 323 320
301 301 301 301 301 301 302 304 305 304 304 304 304 303 302 305 304 304 304 303 302 302 302 303 301 301 304 304 308 310 310 312 313 313 308 309 309 311 316 322 323 324 333 333 334 332 330
301 301 301 301 301 301 302 303 305 305 305 305 304 303 303 304 302 302 303 303 302 303 304 302 301 302 303 307 309 306 308 311 313 313 312 309 311 312 314 321 321 325 333 332 331 330 332
301 301 300 300 300 301 302 305 305 304 304 305 303 303 303 303 301 300 301 303 302 303 304 302 301 303 307 310 310 310 311 314 313 311 315 313 314 313 313 321 323 329 332 336 330 331 333
301 300 300 300 301 301 303 305 305 304 304 305 304 303 303 303 303 303 302 302 302 302 303 303 304 302 302 306 306 305 308 311 311 315 313 318 318 320 315 317 320 329 330 329 328 332 332

GFSGBSN_925_thetae_045.txt.gz
Theta_e
312 311 311 311 311 311 311 312 311 310 309 309 306 305 305 305 304 304 304 305 306 307 308 309 311 313 313 316 310 316 318 315 341 343 342 344 349 349 352 354 348 348 349 348 347 346 344
311 311 311 311 310 310 310 311 310 309 309 308 308 305 304 304 304 304 303 304 306 305 305 310 312 314 313 307 309 310 317 327 340 340 338 341 345 346 348 348 353 347 349 348 344 344 348
310 310 310 310 310 309 310 310 310 309 308 308 306 303 303 303 303 302 303 306 306 308 307 310 314 313 316 310 310 311 319 336 338 334 338 337 342 346 337 329 337 336 338 336 340 343 346
310 310 310 311 309 308 307 306 306 304 303 303 302 302 302 302 301 301 304 305 316 316 314 314 315 314 313 308 310 319 328 333 341 336 331 336 341 343 331 326 326 333 337 340 340 343 344
310 309 308 310 307 306 305 303 302 302 302 302 302 302 302 301 301 302 304 309 317 315 317 316 315 316 313 315 313 311 325 325 333 333 328 331 332 334 327 334 331 328 334 336 338 340 342
309 308 307 307 307 306 304 303 302 302 302 303 302 302 302 302 301 303 307 315 319 318 317 318 316 318 315 317 318 313 316 325 330 329 327 324 329 331 326 330 330 331 331 331 335 334 338
308 307 307 307 307 306 305 303 303 303 303 303 303 303 302 302 301 302 307 308 309 312 307 323 323 319 320 318 321 317 314 322 322 327 326 324 325 326 326 326 326 326 329 334 333 330 337
307 307 307 306 306 306 305 304 303 302 301 301 302 302 302 301 301 303 306 307 304 303 308 310 308 311 316 315 318 318 313 321 319 322 324 324 325 323 323 323 324 324 326 331 329 325 328
306 306 306 305 305 304 303 302 301 301 301 301 301 302 302 302 302 302 304 304 303 304 309 311 310 311 312 313 316 319 314 316 319 318 321 323 322 322 324 324 324 323 324 327 330 326 335
305 305 305 305 304 303 302 301 301 301 300 301 301 301 302 302 302 302 304 303 304 304 312 314 312 313 311 314 316 317 317 317 318 319 319 320 322 322 323 324 324 323 322 323 327 329 333
306 305 305 304 304 303 301 302 302 302 301 301 301 301 302 302 303 305 304 304 304 304 312 317 312 311 313 317 315 316 317 318 319 321 322 322 322 324 324 323 324 323 322 323 324 329 329
305 306 305 305 305 304 302 302 303 303 302 301 301 301 302 303 303 303 303 304 304 312 314 319 314 314 315 315 315 318 318 320 320 321 321 322 320 323 325 324 324 324 324 324 324 326 331
305 306 305 305 304 304 304 304 304 304 303 302 301 301 302 303 303 303 305 305 312 315 314 317 316 316 316 317 314 317 320 321 323 322 323 322 321 322 323 325 324 324 325 326 327 328 330
306 306 305 304 304 304 305 305 304 304 303 302 301 302 303 303 303 303 305 307 313 312 314 313 314 315 318 316 317 317 320 322 323 322 323 323 323 321 321 324 323 325 323 323 326 326 326
306 305 305 304 304 303 304 305 305 304 303 301 301 302 302 302 303 303 308 305 310 312 310 311 313 317 317 315 316 317 319 322 323 322 324 323 323 321 321 322 323 324 326 323 322 322 324
305 305 304 303 303 303 305 305 304 304 303 302 302 300 302 303 303 305 307 308 310 310 312 311 314 313 316 316 318 317 320 317 320 320 320 323 324 323 321 321 322 322 323 322 324 324 324
305 303 303 303 303 303 304 304 304 303 302 302 301 304 302 303 303 307 307 308 308 310 311 312 312 312 314 316 316 317 318 316 316 318 322 322 323 324 322 322 323 321 324 323 323 323 323
304 304 304 303 303 303 304 304 303 303 302 302 300 304 302 303 304 305 306 305 308 310 311 311 312 313 315 315 315 317 319 317 313 318 323 321 320 327 325 324 323 322 323 324 325 327 323
305 304 304 304 304 304 303 303 304 303 303 303 302 302 302 302 306 305 304 305 306 309 310 313 312 313 313 315 315 317 317 314 312 317 319 319 323 327 326 325 322 324 324 324 324 324 329
305 304 304 304 303 303 303 303 303 303 303 303 303 305 303 302 302 304 305 305 306 306 309 310 312 310 313 314 315 315 315 314 311 315 316 317 321 325 328 327 323 325 324 324 324 326 326
302 303 303 302 303 303 303 303 304 304 303 303 303 304 303 304 304 304 305 305 306 306 305 308 309 310 310 313 311 314 313 312 311 313 312 316 319 318 319 319 320 322 322 322 324 326 329
301 302 302 302 302 304 303 303 303 304 304 303 305 305 303 302 304 304 304 304 305 306 305 305 310 308 307 310 310 311 311 312 311 312 312 313 315 319 317 318 319 321 322 322 322 323 323
301 302 301 301 302 303 304 303 304 304 304 304 303 303 303 303 304 304 305 304 306 304 304 306 307 306 306 306 306 307 307 309 309 311 312 313 314 316 317 317 319 322 322 323 323 323 323
302 302 302 301 301 302 303 304 303 304 304 304 303 303 305 304 304 303 303 304 305 305 305 304 304 305 305 304 305 307 307 307 308 308 309 312 315 319 315 318 322 322 322 327 324 323 323
301 301 301 301 301 301 302 304 305 303 304 304 304 303 304 307 304 303 303 304 305 303 303 303 303 304 304 305 308 306 307 311 312 310 309 310 313 314 314 318 319 319 321 334 334 329 331
301 301 301 301 300 300 301 305 305 304 303 304 303 304 303 305 305 304 304 304 304 303 302 302 303 303 305 309 308 308 305 310 308 313 312 310 311 313 315 314 318 321 322 324 334 331 335
301 301 300 300 300 301 301 305 306 304 303 304 305 303 303 304 303 303 304 304 303 302 304 303 304 304 306 308 308 308 309 308 308 310 316 313 312 313 313 316 317 318 326 335 341 332 337
301 301 301 301 302 302 302 306 306 305 305 304 305 304 303 304 303 303 303 303 303 303 305 303 304 305 308 309 308 309 311 312 313 312 315 317 317 316 313 313 314 316 329 332 335 335 336
301 302 302 302 302 302 304 307 307 307 307 307 306 305 303 303 303 303 303 302 302 302 303 303 304 305 306 308 308 307 310 310 311 312 314 316 314 318 314 313 314 317 322 330 332 334 335

GFSGBSN_925_thetae_048.txt.gz
Theta_e
311 311 311 310 310 310 309 309 309 309 308 307 304 303 302 302 302 302 302 302 304 306 306 308 312 312 317 319 315 320 318 318 332 332 334 340 343 341 342 346 347 351 351 350 348 348 347
311 310 311 310 308 308 308 308 307 305 303 302 302 302 302 302 302 301 301 304 305 308 315 311 312 313 317 317 314 312 322 325 332 334 334 339 340 338 342 346 347 345 348 349 348 345 346
310 309 310 309 308 308 307 305 303 303 303 303 303 303 302 302 302 301 303 304 309 316 318 314 313 315 318 319 313 313 322 326 333 333 334 335 337 339 338 343 342 345 348 347 343 343 348
309 308 308 308 308 306 304 303 303 303 302 302 302 302 302 301 301 301 303 307 318 315 316 313 315 316 321 316 315 317 322 328 332 331 329 330 334 339 336 331 331 336 336 342 343 343 346
307 308 308 308 308 304 303 302 302 302 301 301 301 301 302 301 301 302 304 311 320 319 316 316 318 319 322 314 313 315 324 331 333 331 329 331 334 337 340 338 334 332 341 342 345 344 346
308 307 307 307 305 302 301 301 300 301 301 301 301 301 301 301 302 302 305 313 318 319 319 320 318 320 319 320 318 313 324 326 335 335 332 334 336 335 338 340 338 336 336 341 345 343 343
307 307 307 307 306 303 302 301 301 301 301 301 301 301 301 302 301 302 307 311 317 321 312 323 327 323 323 320 319 314 322 326 334 331 328 330 332 331 329 330 331 334 335 337 340 341 340
307 306 306 305 304 302 301 301 301 302 302 301 301 301 301 301 302 304 309 310 306 305 310 312 313 316 323 321 324 317 321 327 332 330 325 326 329 327 327 325 327 330 332 335 338 337 335
306 306 305 305 305 303 302 302 302 303 303 302 302 301 301 302 302 306 308 307 306 306 311 315 316 316 316 317 322 322 322 323 328 328 327 326 325 325 326 328 329 330 332 332 336 336 334
306 306 305 305 305 304 303 303 303 303 303 303 302 301 301 302 306 307 307 306 307 307 315 316 315 317 316 319 321 323 317 322 323 327 326 326 324 325 325 326 327 329 328 329 330 333 338
306 305 306 305 305 304 304 304 304 304 303 303 302 301 302 303 306 308 306 306 306 309 315 319 316 315 317 320 323 322 321 321 322 322 325 326 325 324 325 325 325 326 327 327 328 330 332
306 306 306 305 305 304 305 305 306 305 304 303 302 301 302 306 307 306 305 306 309 315 314 320 316 316 317 318 320 322 323 319 319 322 323 323 323 324 325 324 324 324 325 326 327 329 332
306 306 305 305 304 303 305 305 304 304 304 302 301 302 304 305 307 305 306 310 312 313 315 320 319 319 320 320 321 321 323 323 325 324 323 323 324 324 324 325 325 324 326 327 327 329 332
306 306 305 304 303 302 304 304 304 303 302 302 301 304 304 305 305 305 307 310 308 313 316 315 315 317 320 321 320 320 323 325 324 324 326 326 326 324 325 326 327 325 326 325 330 330 330
306 305 304 303 302 302 303 304 303 302 302 302 303 305 305 304 305 306 309 307 307 314 314 315 315 319 322 320 320 320 322 324 325 326 328 328 328 325 325 325 326 327 329 325 325 327 328
305 305 303 302 302 303 304 304 303 302 302 302 305 305 305 304 305 308 308 307 310 310 311 313 316 316 320 320 321 321 322 322 325 326 326 328 330 327 325 325 325 327 326 325 325 328 328
304 304 303 303 302 304 304 303 303 303 302 304 306 307 305 304 306 308 307 307 307 308 309 311 314 316 317 318 320 322 323 320 320 324 323 327 328 330 326 325 326 326 327 326 325 325 328
303 305 303 303 302 304 303 304 303 303 302 305 306 306 304 305 307 307 307 307 306 308 309 311 311 311 314 317 319 321 322 321 316 320 325 326 328 331 328 326 325 326 326 327 328 329 327
301 302 302 302 303 303 303 303 303 303 303 305 307 307 305 305 307 307 307 307 306 307 308 311 314 314 313 316 318 319 320 317 315 319 324 325 327 332 331 328 326 326 326 326 326 327 331
300 302 303 303 303 304 303 303 303 303 303 304 307 307 306 306 306 306 306 307 307 306 307 307 310 311 314 314 315 317 317 316 313 315 317 319 328 330 333 331 328 328 327 326 326 331 329
301 301 301 302 302 303 302 303 303 304 303 305 306 307 306 307 306 305 304 306 307 306 306 306 309 310 310 315 313 315 315 315 314 314 316 318 327 327 329 326 325 329 327 327 328 328 330
302 302 302 302 302 303 303 302 303 304 303 305 307 306 306 306 305 305 304 306 306 306 305 307 308 308 309 311 312 314 312 314 314 315 315 316 323 323 326 324 323 325 327 327 327 328 329
301 301 301 301 301 302 302 302 303 303 304 305 305 305 306 305 306 305 305 305 306 306 306 305 306 306 306 307 308 309 309 310 311 313 314 315 317 321 326 325 324 327 327 327 327 328 328
301 301 301 301 301 301 301 303 305 304 303 304 304 304 306 307 306 305 304 304 304 305 307 306 306 306 306 307 307 308 309 310 309 310 311 314 316 318 323 324 328 327 327 327 327 327 328
301 301 301 301 301 301 301 304 306 305 304 302 304 303 305 308 305 306 306 305 305 304 304 305 305 306 306 307 309 309 309 310 310 309 310 311 315 317 321 323 325 325 324 325 327 329 328
300 301 301 301 301 301 302 306 306 306 305 303 304 303 304 305 306 305 306 306 306 306 306 305 305 305 307 309 309 310 309 310 310 314 311 311 312 316 317 321 324 324 324 323 326 330 329
301 302 302 302 302 302 302 306 307 307 306 306 305 304 302 303 304 304 307 307 304 304 305 305 305 306 306 309 310 310 309 308 310 311 316 313 313 314 315 317 319 320 324 331 332 342 339
302 301 301 301 302 302 304 307 306 306 307 308 307 305 303 303 304 304 305 305 306 306 307 305 306 308 307 310 309 309 310 310 312 311 313 316 314 313 313 315 316 316 318 329 334 333 336
301 301 302 302 302 303 306 306 306 307 307 307 309 306 305 303 304 304 304 304 305 304 305 305 305 307 307 311 310 309 312 310 311 313 312 314 314 317 314 313 314 316 319 319 321 324 328